Location: Poughquag
(41.6090°N, 73.6820°W)
Time: 07:43:43
(UTC-04:00)

Tiangong 2 - Visible Passes

Search period start: 20 May 2018 00:00
Search period end: 30 May 2018 00:00
Orbit: 382 x 386 km, 42.8° (Epoch: 20 May)

Date Brightness Start Highest point End Pass type
(mag) Time Alt. Az. Time Alt. Az. Time Alt. Az.
20 May 3.2 04:24:00 13° S 04:24:00 13° S 04:24:44 10° S visible
20 May 3.2 20:56:24 10° SSE 20:57:07 11° SE 20:57:22 10° SE visible
21 May 1.9 21:30:50 10° SW 21:33:39 30° SSE 21:34:27 26° ESE visible
22 May 0.9 22:07:17 10° WSW 22:10:25 73° SSE 22:10:49 61° ESE visible
23 May 1.3 21:07:38 10° SW 21:10:40 48° SSE 21:13:43 10° E visible
23 May 1.9 22:44:13 10° W 22:46:39 48° WNW 22:46:39 48° WNW visible
24 May 1.0 21:44:23 10° W 21:47:32 84° N 21:49:53 17° ENE visible
24 May 3.6 23:21:12 10° W 23:22:07 18° WNW 23:22:07 18° WNW visible
25 May 1.0 20:44:35 10° WSW 20:47:43 73° SSE 20:50:52 10° E visible
25 May 1.3 22:21:22 10° W 22:24:30 68° N 22:25:08 50° ENE visible
26 May 1.3 21:21:30 10° W 21:24:38 71° N 21:27:47 10° E visible
26 May 2.5 22:58:17 10° WNW 23:00:13 34° WNW 23:00:13 34° WNW visible
27 May 1.2 21:58:27 10° W 22:01:37 74° N 22:03:01 29° E visible
28 May 1.4 20:58:35 10° W 21:01:44 68° N 21:04:52 10° E visible
28 May 1.5 22:35:22 10° W 22:37:58 52° WSW 22:37:58 52° WSW visible
29 May 1.0 21:35:30 10° WNW 21:38:40 89° SSW 21:40:41 20° ESE visible
29 May 3.9 23:12:30 10° W 23:12:53 12° W 23:12:53 12° W visible
